Погода в Виесите

Латвия     56°20′41″N   25°33′11″E
темп.,
°C
ветер,
м/с
пор.,
м/с
влажн.,
%
обл.,
%
осадки,
мм/ч
давл.,
гПа
погр.,
м
5 марта, пт
пт523:00−2сз38680 0.0 1011442
02:00−2зсз48818 0.0 1012798
05:00−3зсз497091 0.1 10121015
08:00−3ссз596195 0.1 10141089
11:00−1ссз48360 0.0 10151645
14:000сз47330 0.0 10162145
17:00−1з345973 0.0 1017907
20:00−2з268486 0.6 1018328
6 марта, сб
сб623:00−3ссв488794 0.3 1020713
02:00−4ссз376781 0.4 1022408
05:00−5сз26670 0.0 1022309
08:00−5з37740 0.0 1024407
11:00−1з47550 0.0 10231147
14:00+1зюз610470 0.0 10201440
17:00+1зюз61358100 0.0 10171510
20:000зюз71661100 0.0 10141306
7 марта, вс
вс723:00−1зюз81672100 0.0 10091247
02:00+1з81597100 1.3 10051150
05:00−2сз71483100 2.4 10051508
08:00−3зсз3106086 2.4 10071631
11:00−1з6114877 0.1 10062179
14:000з7125388 0.4 10051928
17:00−2зсз71569100 0.5 10021751
20:00−3сз71565100 0.9 10041759
8 марта, пн
пн823:00−5сз61380100 0.1 10061338
02:00−5сз4973100 0.2 10081126
05:00−6ссз2682100 0.1 1009672
08:00−6ссз258065 0.1 1011579
11:00−4ссз466859 0.1 1013973
14:00−4ссз575579 0.1 10151249
17:00−5с5761100 0.0 10161240
20:00−7с3867100 0.1 10201016
9 марта, вт
вт923:00−8с38696 0.0 1022683
02:00−9ссз25743 0.0 1024255
05:00−10сз23790 0.0 1025127
08:00−9сз12733 0.0 1026134
11:00−4сз23490 0.0 1027641
14:00−2з23450 0.0 1027951
17:00−3зюз35550 0.0 1026754
20:00−5юз38650 0.0 1027225